Location: Caucaguita
(10.3578°N, 66.8025°W)
Time: 02:35:12
(UTC+00:00)

Cosmos 1602 - Pass Details

Date: 18 November 2025
Orbit: 367 x 375 km, 82.5° (Epoch: 09 December)

Event Time Altitude Azimuth Distance (km) Brightness Sun altitude
Rises 22:25:01 0° 8° (N) 2,277 6.7 -6.3°
Reaches altitude 10° 22:27:08 10° 18° (NNE) 1,423 5.6 -6.8°
Maximum altitude 22:29:58 33° 85° (E) 681 3.8 -7.5°
Drops below altitude 10° 22:32:48 10° 152° (SSE) 1,425 5.8 -8.2°
Sets 22:34:54 0° 162° (SSE) 2,279 7.0 -8.6°
